Weather reports worldwide

Advertisment
Örskär, Sweden (2488): temperature & dewpoint: 23.05.2020 00:00:00 - 29.05.2020 00:00:00 (CEST)Örskär, Sweden (2488): wind speed & gusts: 23.05.2020 00:00:00 - 29.05.2020 00:00:00 (CEST)Örskär, Sweden (2488): wind direction: 23.05.2020 00:00:00 - 29.05.2020 00:00:00 (CEST)Örskär, Sweden (2488): reduced air pressure: 23.05.2020 00:00:00 - 29.05.2020 00:00:00 (CEST)Örskär, Sweden (2488): visibility: 23.05.2020 00:00:00 - 29.05.2020 00:00:00 (CEST)Örskär, Sweden (2488): precipitation: 23.05.2020 00:00:00 - 29.05.2020 00:00:00 (CEST)
Date & Time tt [°C] td [°C] ff [km/h] ff [kn] fx [km/h] fx [kn] dd ppp [hPa] vv [km] rr [mm]
29.05.2020 00:00:00 8,9 6,1 21 11 23 12 NNW 1030,3 50 0,0
28.05.2020 23:00:00 8,8 4,4 12 6 13 7 NW 1030,1 50 0,0
28.05.2020 22:00:00 10,4 5,2 9 5 11 6 W 1029,9 50 0,0
28.05.2020 21:00:00 10,7 4,2 6 3 9 5 W 1029,6 50 0,0
28.05.2020 20:00:00 10,7 3,5 6 3 11 6 W 1029,5 50 0,0
28.05.2020 19:00:00 12,8 2,6 9 5 12 6 WNW 1029,6 49 0,0
28.05.2020 18:00:00 12,2 1,8 8 4 10 6 W 1029,6 50 0,0
28.05.2020 17:00:00 12,3 3,0 8 4 10 6 WSW 1029,8 36 0,0
28.05.2020 16:00:00 11,5 3,8 7 4 9 5 W 1030,0 43 0,0
28.05.2020 15:00:00 11,1 4,8 8 4 13 7 W 1030,1 39 0,0
28.05.2020 14:00:00 10,8 4,9 9 5 13 7 WNW 1030,1 46 0,0
28.05.2020 13:00:00 10,4 4,7 11 6 19 10 WNW 1030,2 41 0,0
28.05.2020 12:00:00 10,8 4,7 18 10 27 14 NW 1030,3 30 0,0
28.05.2020 11:00:00 10,4 5,3 23 12 31 17 NW 1029,9 46 0,0
28.05.2020 10:00:00 10,4 5,2 27 14 32 18 NW 1029,9 35 0,0
28.05.2020 09:00:00 9,5 5,1 29 16 39 21 NW 1029,7 34 0,0
28.05.2020 08:00:00 9,2 4,6 34 18 39 21 NW 1029,4 41 0,0
28.05.2020 07:00:00 9,1 4,7 32 18 43 23 NW 1029,1 39 0,0
28.05.2020 06:00:00 9,0 5,2 31 17 41 22 NNW 1028,8 40 0,0
28.05.2020 05:00:00 9,0 4,9 36 20 43 23 NNW 1028,3 50 0,0
28.05.2020 04:00:00 9,2 4,8 40 22 46 25 NNW 1027,9 50 0,0
28.05.2020 03:00:00 9,3 5,3 34 18 41 22 NNW 1027,4 50 0,0
28.05.2020 02:00:00 9,6 5,6 33 18 44 24 N 1026,9 50 0,0
28.05.2020 01:00:00 9,8 6,9 31 17 34 19 NW 1026,5 50 0,0
28.05.2020 00:00:00 7,3 5,9 18 10 21 11 W 1026,3 50 0,0
27.05.2020 23:00:00 7,3 5,4 15 8 21 11 W 1026,2 50 0,0
27.05.2020 22:00:00 9,3 6,7 16 8 26 14 WNW 1025,8 50 0,0
27.05.2020 21:00:00 9,9 6,8 22 12 27 15 WNW 1025,4 49 0,0
27.05.2020 20:00:00 10,1 7,3 19 11 23 12 WNW 1025,3 44 0,0
27.05.2020 19:00:00 10,3 6,4 17 9 26 14 NW 1025,4 43 0,0
27.05.2020 18:00:00 9,7 6,6 23 12 40 22 NNW 1025,3 38 0,0
27.05.2020 17:00:00 10,1 6,2 37 20 42 23 NNW 1025,4 46 0,0
27.05.2020 16:00:00 10,2 6,5 22 12 26 14 NNW 1025,5 47 0,0
27.05.2020 15:00:00 10,8 6,5 21 11 27 14 N 1025,6 44 0,0
27.05.2020 14:00:00 10,3 6,4 22 12 28 15 N 1025,5 47 0,0
27.05.2020 13:00:00 11,2 7,3 18 10 22 12 N 1025,6 42 0,0
27.05.2020 12:00:00 10,8 6,5 17 9 24 13 N 1025,8 44 0,0
27.05.2020 11:00:00 10,8 7,0 19 10 28 15 N 1025,5 39 0,0
27.05.2020 10:00:00 10,9 6,8 24 13 37 20 N 1025,3 43 0,0
27.05.2020 09:00:00 12,0 7,9 20 11 24 13 NNW 1025,2 40 0,0
27.05.2020 08:00:00 13,1 7,3 10 5 22 12 W 1024,9 43 0,0
27.05.2020 07:00:00 12,1 7,2 20 11 27 15 WSW 1024,9 38 0,0
27.05.2020 06:00:00 11,4 7,1 19 10 29 16 SSW 1025,0 48 0,0
27.05.2020 05:00:00 11,2 7,3 20 11 27 15 SSW 1025,3 50 0,0
27.05.2020 04:00:00 11,2 7,3 23 12 31 17 SSW 1025,5 50 0,0
27.05.2020 03:00:00 11,6 7,5 27 15 34 19 SSW 1026,0 50 0,0
27.05.2020 02:00:00 12,2 7,5 33 18 38 21 SW 1026,4 50 0,0
27.05.2020 01:00:00 12,7 8,0 34 18 36 20 SSW 1026,8 50 0,0
27.05.2020 00:00:00 13,7 8,1 31 17 40 22 SSW 1027,2 50 0,0
26.05.2020 23:00:00 14,8 7,4 37 20 40 22 SSW 1027,7 50 0,0
26.05.2020 22:00:00 16,7 5,9 27 15 41 22 S 1027,9 50 0,0
26.05.2020 21:00:00 17,2 5,5 21 12 31 17 S 1028,0 50 0,0
26.05.2020 20:00:00 18,0 5,6 19 10 29 16 SSE 1028,3 45 0,0
26.05.2020 19:00:00 18,0 5,6 18 10 24 13 SSE 1028,7 50 0,0
26.05.2020 18:00:00 18,1 4,6 15 8 31 17 SE 1029,3 46 0,0
26.05.2020 17:00:00 17,1 3,9 20 11 34 18 SE 1029,9 50 0,0
26.05.2020 16:00:00 17,3 3,2 22 12 34 18 SE 1030,4 50 0,0
26.05.2020 15:00:00 17,0 2,9 19 10 31 17 SE 1030,9 43 0,0
26.05.2020 14:00:00 17,0 2,9 18 10 25 13 ESE 1031,6 32 0,0
26.05.2020 13:00:00 16,0 1,8 18 10 24 13 ESE 1032,2 38 0,0
26.05.2020 12:00:00 17,1 3,4 13 7 16 9 E 1032,8 45 0,0
26.05.2020 11:00:00 14,7 2,2 3 1 6 3 NNW 1033,3 44 0,0
26.05.2020 10:00:00 13,8 4,7 2 1 6 4 N 1033,5 50 0,0
26.05.2020 09:00:00 13,4 5,8 2 1 9 5 WSW 1033,5 46 0,0
26.05.2020 08:00:00 11,9 7,2 6 3 8 5 W 1033,3 34 0,0
26.05.2020 07:00:00 10,3 7,5 3 2 9 5 S 1033,1 33 0,0
26.05.2020 06:00:00 8,5 7,7 9 5 12 7 SW 1033,2 19 0,0
26.05.2020 05:00:00 7,5 7,1 9 5 11 6 SW 1032,6 13 0,0
26.05.2020 04:00:00 6,5 5,9 6 4 16 9 WSW 1032,3 8 0,0
26.05.2020 03:00:00 6,5 6,1 5 3 9 5 SW 1032,3 8 0,0
26.05.2020 02:00:00 7,1 6,7 7 4 13 7 SW 1032,3 14 0,0
26.05.2020 01:00:00 6,8 6,3 7 4 11 6 SSW 1032,3 29 0,0
26.05.2020 00:00:00 5,9 5,3 2 1 4 2 SE 1031,9 26 0,0
25.05.2020 23:00:00 5,7 5,0 2 1 11 6 ESE 1031,7 35 0,0
25.05.2020 22:00:00 5,9 4,9 7 4 9 5 ENE 1031,3 50 0,0
25.05.2020 21:00:00 7,7 5,7 8 4 11 6 E 1030,9 50 0,0
25.05.2020 20:00:00 10,3 6,3 5 3 6 3 NW 1030,2 50 0,0
25.05.2020 19:00:00 8,3 6,3 4 2 7 4 WSW 1029,9 46 0,0
25.05.2020 18:00:00 7,3 6,4 2 1 9 5 NNE 1029,6 0,5 0,0
25.05.2020 17:00:00 8,2 6,5 3 2 9 5 NNE 1029,5 12 0,0
25.05.2020 16:00:00 - - - - 14 7 - - - -
25.05.2020 15:00:00 8,8 6,9 13 7 19 11 NNW 1029,5 27 0,0
25.05.2020 14:00:00 8,3 6,4 12 7 16 9 NNW 1029,2 28 0,0
25.05.2020 13:00:00 7,5 6,6 13 7 21 11 N 1028,8 3,2 0,0
25.05.2020 12:00:00 7,1 6,2 18 10 25 13 N 1028,4 39 0,0
25.05.2020 11:00:00 6,9 6,2 19 10 25 14 N 1027,5 40 0,0
25.05.2020 10:00:00 6,3 6,0 16 9 22 12 N 1026,7 50 0,0
25.05.2020 09:00:00 5,7 5,6 13 7 17 9 NNW 1025,9 0,8 0,0
25.05.2020 08:00:00 5,4 5,3 11 6 16 9 NE 1024,8 0,4 0,0
25.05.2020 07:00:00 5,1 5,0 8 4 17 9 NE 1024,0 0,4 0,0
25.05.2020 06:00:00 5,8 5,7 10 5 15 8 E 1022,9 0,3 0,0
25.05.2020 05:00:00 5,4 5,2 10 5 25 14 SSE 1021,8 0,5 0,0
25.05.2020 04:00:00 5,4 5,3 21 12 26 14 ESE 1020,8 0,5 0,0
25.05.2020 03:00:00 5,8 5,5 16 9 20 11 ESE 1019,6 0,5 0,0
25.05.2020 02:00:00 6,0 5,7 15 8 20 11 SE 1018,9 0,9 0,0
25.05.2020 01:00:00 6,2 5,8 18 10 23 12 SE 1018,3 1,8 0,0
25.05.2020 00:00:00 6,8 6,1 20 11 26 14 SSE 1017,7 32 0,0
24.05.2020 23:00:00 7,3 6,7 21 12 30 16 SE 1017,2 - 0,0
24.05.2020 22:00:00 8,4 7,2 22 12 29 16 SE 1016,5 40 0,0
24.05.2020 21:00:00 8,9 7,2 22 12 29 16 SE 1015,8 44 0,0
24.05.2020 20:00:00 9,9 7,1 21 11 33 18 SE 1015,2 50 0,0
24.05.2020 19:00:00 10,3 7,5 22 12 32 18 SE 1014,6 43 0,0
24.05.2020 18:00:00 11,4 7,1 18 10 31 17 SE 1014,3 38 0,0
24.05.2020 17:00:00 9,5 6,9 23 13 35 19 SE 1014,0 48 0,0
24.05.2020 16:00:00 9,7 6,8 20 11 35 19 ESE 1013,9 41 0,0
24.05.2020 15:00:00 11,7 7,0 24 13 41 22 SE 1013,6 37 0,0
24.05.2020 14:00:00 10,1 7,2 29 16 42 23 SE 1013,8 39 0,0
24.05.2020 13:00:00 10,7 7,2 27 15 41 22 SE 1013,9 33 0,0
24.05.2020 12:00:00 11,5 7,4 28 15 39 21 ESE 1013,6 24 0,0
24.05.2020 11:00:00 11,6 7,1 18 10 23 12 E 1013,5 21 0,0
24.05.2020 10:00:00 11,2 6,9 11 6 17 9 SSW 1013,5 22 0,0
24.05.2020 09:00:00 9,7 6,8 10 6 17 9 SW 1013,5 24 0,0
24.05.2020 08:00:00 9,0 7,4 12 6 20 11 SSW 1013,3 32 0,0
24.05.2020 07:00:00 8,6 7,4 17 9 26 14 SSW 1013,0 34 0,0
24.05.2020 06:00:00 8,0 7,1 22 12 29 15 SSW 1012,7 17 0,0
24.05.2020 05:00:00 8,1 7,3 11 6 16 9 S 1012,7 14 0,0
24.05.2020 04:00:00 8,0 7,2 9 5 19 10 S 1012,6 14 0,0
24.05.2020 03:00:00 7,9 7,1 17 9 22 12 SSW 1012,8 18 0,0
24.05.2020 02:00:00 7,9 7,1 14 8 23 12 S 1012,9 19 0,0
24.05.2020 01:00:00 7,5 6,9 12 7 20 11 S 1013,2 18 0,0
24.05.2020 00:00:00 7,2 6,5 12 6 19 10 SSE 1013,3 13 0,1
23.05.2020 23:00:00 7,4 6,0 13 7 27 15 SSE 1013,7 4,2 0,0
23.05.2020 22:00:00 7,8 5,8 18 10 33 18 SSE 1014,0 50 0,0
23.05.2020 21:00:00 7,5 6,3 18 10 32 17 SE 1014,4 22 0,2
23.05.2020 20:00:00 7,8 5,6 20 11 34 18 SSE 1015,0 35 0,0
23.05.2020 19:00:00 7,3 5,8 18 10 27 14 SE 1015,3 43 0,6
23.05.2020 18:00:00 7,2 5,7 13 7 38 20 SE 1016,0 12 1,0
23.05.2020 17:00:00 8,0 5,5 24 13 51 28 S 1016,8 16 0,6
23.05.2020 16:00:00 11,1 1,1 33 18 56 31 S 1016,7 33 0,0
23.05.2020 15:00:00 12,1 0,2 32 17 61 33 S 1016,7 39 0,0
23.05.2020 14:00:00 12,5 0,3 21 11 37 20 S 1017,1 50 0,0
23.05.2020 13:00:00 12,9 0,3 18 10 35 19 S 1017,2 50 0,0
23.05.2020 12:00:00 13,2 0,2 24 13 36 19 S 1017,7 50 0,0
23.05.2020 11:00:00 13,3 0,0 26 14 42 23 S 1017,6 50 0,0
23.05.2020 10:00:00 12,7 1,1 27 15 41 22 S 1018,1 50 0,0
23.05.2020 09:00:00 12,6 1,9 23 13 40 21 S 1018,3 50 0,0
23.05.2020 08:00:00 12,6 1,0 29 15 41 22 S 1018,4 48 0,0
23.05.2020 07:00:00 10,4 1,0 24 13 43 23 S 1018,5 50 0,0
23.05.2020 06:00:00 9,1 1,0 25 14 42 23 S 1019,0 50 0,0
23.05.2020 05:00:00 9,3 0,4 26 14 43 23 S 1019,3 50 0,0
23.05.2020 04:00:00 9,1 -0,5 28 15 42 23 S 1019,4 50 0,0
23.05.2020 03:00:00 9,5 -1,0 29 16 44 24 S 1019,8 50 0,0
23.05.2020 02:00:00 8,6 -2,1 27 14 39 21 S 1020,6 50 0,0
23.05.2020 01:00:00 8,9 -1,8 26 14 39 21 S 1020,9 50 0,0
23.05.2020 00:00:00 9,3 -0,9 24 13 36 19 S 1021,3 50 0,0

tt = temperature
td = dewpoint
ff = wind speed
fx = gusts
dd = wind direction
ppp = reduced air pressure
vv = visibility
rr = precipitation

Next stations